DW4798 Weather Reports


time (UTC)temp
C
wind
direction
speed
KPH
gust
KPH
rain 1hr
cm
rain 24hr
cm
rain mn
cm
humidity
%
barometer
mb
20260507192115 32 225 1.6 6.4 0.00 0.00 0.00 12 1011.1
20260507191116 31 225 1.6 6.4 0.00 0.00 0.00 11 1011.3
20260507190118 31 0.0 1.6 0.00 0.00 0.00 13 1011.5
20260507185118 31 0.0 1.6 0.00 0.00 0.00 14 1011.7
20260507184118 31 0.0 1.6 0.00 0.00 0.00 15 1011.8
20260507183118 30 0.0 0.0 0.00 0.00 0.00 15 1011.9
20260507182118 30 0.0 1.6 0.00 0.00 0.00 16 1011.9
20260507181118 29 0.0 3.2 0.00 0.00 0.00 17 1011.9
20260507180118 28 0.0 3.2 0.00 0.00 0.00 18 1012.1
20260507175120 28 0.0 1.6 0.00 0.00 0.00 19 1012.2
20260507174121 27 0.0 0.0 0.00 0.00 0.00 19 1012.2
20260507173117 27 0.0 0.0 0.00 0.00 0.00 20 1012.2
20260507172120 27 0.0 1.6 0.00 0.00 0.00 21 1012.3
20260507171117 26 0.0 0.0 0.00 0.00 0.00 22 1012.2
20260507170138 26 225 1.6 3.2 0.00 0.00 0.00 23 1012.3
20260507165137 25 0.0 0.0 0.00 0.00 0.00 24 1012.5
20260507164117 25 0.0 3.2 0.00 0.00 0.00 25 1012.6
20260507163120 25 0.0 1.6 0.00 0.00 0.00 26 1012.5
20260507162120 24 0.0 3.2 0.00 0.00 0.00 26 1012.3
20260507161140 24 0.0 1.6 0.00 0.00 0.00 25 1012.5
20260507160121 23 0.0 1.6 0.00 0.00 0.00 29 1012.7
20260507155120 23 0.0 1.6 0.00 0.00 0.00 28 1012.7
20260507154120 22 0.0 0.0 0.00 0.00 0.00 28 1012.7
20260507153140 22 0.0 0.0 0.00 0.00 0.00 30 1012.6
20260507152117 22 0.0 0.0 0.00 0.00 0.00 31 1012.7
20260507151141 22 0.0 1.6 0.00 0.00 0.00 30 1012.7
20260507150120 22 0.0 0.0 0.00 0.00 0.00 31 1012.7
20260507145120 21 0.0 1.6 0.00 0.00 0.00 26 1012.6
20260507144119 21 0.0 0.0 0.00 0.00 0.00 34 1012.8
20260507143119 20 0.0 1.6 0.00 0.00 0.00 31 1012.7
20260507142116 20 0.0 0.0 0.00 0.00 0.00 35 1012.5
20260507141119 20 0.0 0.0 0.00 0.00 0.00 36 1012.6
20260507140117 19 0.0 0.0 0.00 0.00 0.00 38 1012.6
20260507135117 18 0.0 0.0 0.00 0.00 0.00 40 1012.5
20260507134117 18 0.0 0.0 0.00 0.00 0.00 38 1012.3
20260507133119 18 0.0 0.0 0.00 0.00 0.00 37 1012.4
20260507132140 19 0.0 0.0 0.00 0.00 0.00 34 1012.4
20260507131120 19 0.0 0.0 0.00 0.00 0.00 33 1012.3
20260507130120 19 0.0 0.0 0.00 0.00 0.00 34 1012.1
20260507125119 19 0.0 4.8 0.00 0.00 0.00 33 1012.1
20260507124120 18 0.0 1.6 0.00 0.00 0.00 32 1012.1
20260507123120 19 0.0 0.0 0.00 0.00 0.00 32 1011.9
20260507122120 19 0.0 1.6 0.00 0.00 0.00 32 1012.2
20260507121120 19 0.0 1.6 0.00 0.00 0.00 31 1012.1
20260507120119 19 0.0 1.6 0.00 0.00 0.00 31 1012.2
20260507115120 19 0.0 6.4 0.00 0.00 0.00 32 1012.2
20260507114120 20 0.0 1.6 0.00 0.00 0.00 31 1012.2
20260507113121 20 0.0 0.0 0.00 0.00 0.00 31 1012.2
20260507112120 20 0.0 3.2 0.00 0.00 0.00 30 1012.3
20260507111119 20 0.0 0.0 0.00 0.00 0.00 30 1012.3
20260507110137 20 0.0 0.0 0.00 0.00 0.00 29 1012.4
20260507105117 21 0.0 0.0 0.00 0.00 0.00 29 1012.5
20260507104137 21 0.0 1.6 0.00 0.00 0.00 28 1012.6
20260507103137 21 0.0 0.0 0.00 0.00 0.00 28 1012.6
20260507102117 21 0.0 0.0 0.00 0.00 0.00 28 1012.9
20260507101119 21 0.0 0.0 0.00 0.00 0.00 28 1012.9
20260507100119 21 0.0 1.6 0.00 0.00 0.00 28 1012.9
20260507095119 21 0.0 1.6 0.00 0.00 0.00 28 1013.1
20260507094119 21 0.0 0.0 0.00 0.00 0.00 28 1013.1
20260507093119 21 0.0 0.0 0.00 0.00 0.00 28 1013.2
20260507092119 21 0.0 0.0 0.00 0.00 0.00 28 1013.2
20260507091119 21 0.0 0.0 0.00 0.00 0.00 28 1013.2
20260507090119 21 0.0 0.0 0.00 0.00 0.00 28 1013.4
20260507085119 21 0.0 0.0 0.00 0.00 0.00 28 1013.4
20260507084117 21 0.0 0.0 0.00 0.00 0.00 28 1013.4
20260507083119 21 0.0 1.6 0.00 0.00 0.00 28 1013.5
20260507082119 21 0.0 1.6 0.00 0.00 0.00 28 1013.5
20260507081119 21 0.0 0.0 0.00 0.00 0.00 28 1013.5
20260507080139 21 0.0 0.0 0.00 0.00 0.00 29 1013.6
20260507075117 21 0.0 0.0 0.00 0.00 0.00 29 1013.7
20260507074136 21 0.0 0.0 0.00 0.00 0.00 29 1013.8
20260507073116 21 0.0 0.0 0.00 0.00 0.00 27 1013.7
20260507072117 21 0.0 0.0 0.00 0.00 0.00 28 1013.5
20260507071116 22 0.0 0.0 0.00 0.00 0.00 26 1013.5
20260507070116 22 0.0 0.0 0.00 0.00 0.00 27 1013.4
20260507065121 22 0.0 0.0 0.00 0.00 0.00 26 1013.5
20260507064136 22 0.0 0.0 0.00 0.00 0.00 26 1013.4
20260507063139 21 0.0 0.0 0.00 0.00 0.00 27 1013.3
20260507062117 21 0.0 0.0 0.00 0.00 0.00 28 1013.2
20260507061117 21 0.0 0.0 0.00 0.00 0.00 29 1013.2
20260507060116 21 0.0 0.0 0.00 0.00 0.00 31 1013.3
20260507055119 21 0.0 0.0 0.00 0.00 0.00 30 1013.2
20260507054119 21 0.0 0.0 0.00 0.00 0.00 29 1013.1
20260507053139 21 0.0 0.0 0.00 0.00 0.00 29 1013.0
20260507052119 21 0.0 0.0 0.00 0.00 0.00 31 1013.2
20260507051119 21 0.0 0.0 0.00 0.00 0.00 30 1013.0
20260507050119 21 0.0 0.0 0.00 0.00 0.00 29 1013.0
20260507045119 22 0.0 0.0 0.00 0.00 0.00 29 1012.9
20260507044119 22 0.0 0.0 0.00 0.00 0.00 28 1012.8
20260507043139 22 0.0 0.0 0.00 0.00 0.00 28 1012.8
20260507042119 22 0.0 0.0 0.00 0.00 0.00 27 1012.7
20260507041116 23 0.0 0.0 0.00 0.00 0.00 28 1012.6
20260507040139 23 0.0 0.0 0.00 0.00 0.00 27 1012.4
20260507035139 23 0.0 0.0 0.00 0.00 0.00 27 1012.2
20260507034116 24 0.0 0.0 0.00 0.00 0.00 24 1012.2
20260507033115 24 0.0 0.0 0.00 0.00 0.00 24 1012.2
20260507032116 24 0.0 0.0 0.00 0.00 0.00 25 1012.0
20260507031118 25 0.0 0.0 0.00 0.00 0.00 24 1011.9
20260507030116 25 0.0 0.0 0.00 0.00 0.00 23 1011.7
20260507025119 25 0.0 0.0 0.00 0.00 0.00 23 1011.6
20260507024119 25 0.0 0.0 0.00 0.00 0.00 22 1011.4
20260507023118 26 0.0 1.6 0.00 0.00 0.00 22 1011.4
20260507022119 26 0.0 0.0 0.00 0.00 0.00 22 1011.1
20260507021119 26 0.0 0.0 0.00 0.00 0.00 21 1011.0
20260507020116 26 0.0 3.2 0.00 0.00 0.00 21 1011.0
20260507015118 26 0.0 0.0 0.00 0.00 0.00 22 1010.8
20260507014119 26 0.0 0.0 0.00 0.00 0.00 21 1010.9
20260507013119 27 0.0 1.6 0.00 0.00 0.00 21 1010.9
20260507012119 27 0.0 3.2 0.00 0.00 0.00 21 1010.8
20260507011118 27 0.0 1.6 0.00 0.00 0.00 21 1010.9
20260507010118 27 0.0 0.0 0.00 0.00 0.00 20 1010.9
20260507005116 28 0.0 0.0 0.00 0.00 0.00 21 1010.9
20260507004117 28 0.0 3.2 0.00 0.00 0.00 20 1011.0
20260507003116 28 0.0 0.0 0.00 0.00 0.00 20 1010.9
20260507002116 28 0.0 0.0 0.00 0.00 0.00 19 1011.2
20260507001115 28 0.0 0.0 0.00 0.00 0.00 19 1011.3
20260507000116 28 0.0 1.6 0.00 0.00 0.00 20 1011.0
20260506235118 28 0.0 0.0 0.00 0.00 0.00 20 1011.0
20260506234118 29 0.0 3.2 0.00 0.00 0.00 20 1011.3
20260506233118 29 0.0 0.0 0.00 0.00 0.00 20 1011.3
20260506232118 28 0.0 4.8 0.00 0.00 0.00 20 1011.5
20260506231118 28 0.0 0.0 0.00 0.00 0.00 19 1011.4
20260506230119 28 0.0 3.2 0.00 0.00 0.00 20 1011.6
20260506225119 28 0.0 3.2 0.00 0.00 0.00 20 1011.6
20260506224115 28 0.0 0.0 0.00 0.00 0.00 20 1011.8
20260506223118 28 248 3.2 9.7 0.00 0.00 0.00 20 1011.8
20260506222118 28 0.0 0.0 0.00 0.00 0.00 20 1012.0
20260506221138 28 0.0 0.0 0.00 0.00 0.00 19 1012.2
20260506220118 28 0.0 3.2 0.00 0.00 0.00 20 1012.3
20260506215118 28 0.0 0.0 0.00 0.00 0.00 20 1012.4
20260506214135 28 0.0 3.2 0.00 0.00 0.00 21 1012.5
20260506213118 28 0.0 1.6 0.00 0.00 0.00 21 1012.7
20260506212118 28 0.0 4.8 0.00 0.00 0.00 21 1012.9
20260506211116 28 225 1.6 4.8 0.00 0.00 0.00 20 1013.1
20260506210118 28 0.0 0.0 0.00 0.00 0.00 21 1013.2
20260506205118 28 225 1.6 6.4 0.00 0.00 0.00 21 1013.3
20260506204119 27 0.0 0.0 0.00 0.00 0.00 22 1013.4
20260506203138 27 225 1.6 6.4 0.00 0.00 0.00 21 1013.6
20260506202118 27 0.0 3.2 0.00 0.00 0.00 21 1013.6
20260506201118 27 0.0 3.2 0.00 0.00 0.00 22 1013.8
20260506200118 26 225 3.2 6.4 0.00 0.00 0.00 22 1013.9
20260506195118 26 0.0 3.2 0.00 0.00 0.00 23 1013.9
20260506194138 26 203 3.2 8.0 0.00 0.00 0.00 23 1014.1
20260506193118 26 203 1.6 4.8 0.00 0.00 0.00 23 1014.1